Back to catalog

STARLINK-33921

AliveCommunicationsVLEO
NORAD 65934·PAYLOAD·🇺🇸 United States

Launched Oct 8, 2025 from Vandenberg Space Force Base

Loading…

Next Passes (next 24 hours)

TLE

FreshSource: CelesTrak SupGP

Epoch: Sep 14, 2026, 20:48 UTC

1 65934C 25225AA  26257.86715278  .00013072  00000+0  38647-3 0  2579
2 65934  53.1599   5.7501 0001203  81.4914 119.9367 15.34364383    19

Track STARLINK-33921 in real time with AllMySat

Download on the App Store